Regional Weather Roundup
Issued by NWS

Home | Current Version | Previous Version | Graphics & Text | Print | Product List | Glossary On
Versions: 1 2 3 4 5 6 7 8 9 10 11 12 13 14 15 16 17 18 19 20 21 22 23 24 25 26 27 28 29 30 31 32 33 34 35 36 37 38 39 40 41 42 43 44 45 46 47 48 49 50
678
ASUS45 KTFX 141210
RWRMT
MONTANA REGIONAL WEATHER ROUNDUP
NATIONAL WEATHER SERVICE GREAT FALLS MT
500 AM MST SUN FEB 14 2016

NOTE: "FAIR" INDICATES FEW OR NO CLOUDS BELOW 12000 FEET WITH NO
SIGNIFICANT WEATHER AND/OR OBSTRUCTIONS TO VISIBILITY.

MTZ001>007-043-141300-
WEST OF THE DIVIDE

CITY           SKY/WX    TMP DP  RH WIND       PRES   REMARKS
KALISPELL      CLOUDY    34  32  92 S9        29.95F WCI  27
MISSOULA       CLOUDY    35  30  82 E5        30.01F
BUTTE          CLOUDY    31  24  75 NW3       29.97R
MULLAN PASS    LGT SNOW  26  25  96 VRB5      29.95F FOG
ANACONDA         N/A     36  25  64 W14       29.96R WCI  27
DEER LODGE       N/A     32  27  80 N5        29.98R
HAMILTON         N/A     41  28  60 S7        30.02S
$$

MTZ008-052>055-141300-
SOUTHWEST MONTANA

CITY           SKY/WX    TMP DP  RH WIND       PRES   REMARKS
BOZEMAN        CLOUDY    32  26  78 NW8       29.92F WCI  25
DILLON         CLOUDY    33  24  69 SW12      30.00R WCI  24
ENNIS          CLOUDY    36  25  64 S13       30.05R WCI  27
$$

MTZ009-010-012-014-046-048-049-054-141300-
EAST SLOPES AND CENTRAL MONTANA

CITY           SKY/WX    TMP DP  RH WIND       PRES   REMARKS
CUT BANK       CLOUDY    36  22  56 W18       29.75R WCI  26
GREAT FALLS    CLOUDY    37  24  59 SW20      29.80R WCI  27
MALMSTROM AFB  CLOUDY    38  25  59 SW23      29.81S WCI  28
HELENA         CLOUDY    38  26  62 W22G30    29.88F WCI  27
CHOTEAU          N/A     41  18  38 W6G30     29.78S
$$

MTZ011-013-016-021-045-047-050-051-141300-
NORTH CENTRAL MONTANA

CITY           SKY/WX    TMP DP  RH WIND       PRES   REMARKS
HAVRE          CLOUDY    37  25  61 SW14      29.74F WCI  28
LEWISTOWN      CLOUDY    37  24  59 SW13      29.79F WCI  29
N BAR RANCH    FLURRIES  32  28  86 W9        29.82F WCI  24
CHINOOK          N/A     37  27  65 NW7       29.75F
$$

MTZ017>020-022>027-061-062-141300-
NORTHEAST MONTANA

CITY           SKY/WX    TMP DP  RH WIND       PRES   REMARKS
GLASGOW        CLOUDY    30  24  78 W5        29.76F
JORDAN           N/A     33  27  78 W8        29.79F WCI  26
SIDNEY         CLEAR     25  19  80 S6        29.78R WCI  18
WOLF POINT     CLOUDY    28  24  85 S3        29.77F
PLENTYWOOD       N/A     23  21  93 W6        29.73F WCI  16
POPLAR           N/A     27  25  93 CALM      29.78S
$$

MTZ028>42-056>058-141300-
SOUTHCENTRAL AND SOUTHEAST MONTANA

CITY           SKY/WX    TMP DP  RH WIND       PRES   REMARKS
BAKER          CLEAR     28  23  81 CALM      29.79F
BILLINGS       FLURRIES  33  31  92 SW8       29.86F WCI  26
LIVINGSTON     CLOUDY    39  33  79 SW29G47   29.82F WCI  27
MILES CITY     PTCLDY    34  26  72 W10       29.82F WCI  26
FORSYTH          N/A     39  25  56 W20G25    29.84F WCI  30
$$

REGIONAL REPORTS...DAKOTAS

CITY           SKY/WX    TMP DP  RH WIND       PRES   REMARKS
WILLISTON      CLOUDY    30  26  85 W12       29.76S WCI  20
MINOT          CLOUDY    25  18  74 NW8       29.71F WCI  16
DICKINSON      CLEAR     28  25  88 W12       29.72F WCI  18
BEACH            N/A     28  28 100 W9        29.80S WCI  20
CROSBY         CLOUDY    28  28 100 NW9       29.75S WCI  20
TIOGA          MIX PCPN  28  28 100 W16       29.77S WCI  17
BISMARCK       LGT SNOW  24  20  84 SW3       29.77S FOG
GRAND FORKS    LGT SNOW  14   9  80 S20       29.89F WCI  -3
FARGO          LGT SNOW  14   9  80 S21G29    29.92F WCI  -4
BUFFALO SD       N/A     32  26  78 NW17      29.72F WCI  21
RAPID CITY     CLEAR     32  24  72 W8        29.85S WCI  25
$$

REGIONAL REPORTS...WYOMING/IDAHO/WASHINGTON

CITY           SKY/WX    TMP DP  RH WIND       PRES   REMARKS
GILLETTE       CLOUDY    26  21  81 SW5       29.86F
SHERIDAN       CLOUDY    32  18  55 N5        29.84F
BUFFALO WY     CLOUDY    36  14  40 NE5       29.86F
CODY           CLOUDY    39  16  38 W16G23    29.86F WCI  30
YELLOWSTONE LA   N/A     23  19  85 VRB3      30.01F
IDAHO FALLS    CLOUDY    33  30  88 SW18      30.11R WCI  22
SALMON         CLOUDY    30  27  86 CALM      30.06S
BOISE          LGT RAIN  40  38  93 E5        30.21S
SPOKANE        CLOUDY    38  36  92 SW13      30.03F WCI  30
$$

REGIONAL REPORTS...ALBERTA

CITY           SKY/WX    TMP DP  RH WIND       PRES   REMARKS
EDMONTON       MOCLDY    30  23  74 W9        29.63R WCI  22
CALGARY        MOCLDY    30  18  59 VRB2      29.66R
LETHBRIDGE     CLOUDY    41  23  48 W36G41    29.68F
MEDICINE HAT   MOCLDY    28  25  86 SW7       29.67F WCI  21
WATERTON GATE    N/A     36  23  60 SW32G51     N/A  WCI  22
CARDSTON         N/A     37  21  52 W16G25      N/A  WCI  28
MILK RIVER       N/A     37  23  56 W20G25      N/A  WCI  27
ONEFOUR          N/A     32  23  69 SW3         N/A
$$

REGIONAL REPORTS...SASKATCHEWAN

CITY           SKY/WX    TMP DP  RH WIND       PRES   REMARKS
SWIFT CURRENT  MOCLDY    27  21  80 SW13      29.65F WCI  16
REGINA         FOG       25  25 100 NW7       29.69F VSB 1/4 WCI  17
SASKATOON      PTCLDY    16  16 100 SW7       29.67S WCI   6
CYPRESS HILLS    N/A     27  21  80 W7          N/A  WCI  19
VAL MARIE        N/A     30  25  80 SW6         N/A  WCI  24
ROCKGLEN         N/A     25  21  86 W8          N/A  WCI  16
ASSINIBOIA       N/A     25  23  93 SW3         N/A
$$




USA.gov is the U.S. government's official web portal to all federal, state and local government web resources and services.